GFSNGP_prec_cthk_132.txt.gz
RH
55 54 50 57 57 61 68 78 85 86 78 78 81 83 84 86 87 89 90 93 93 95 94 93 93 94 93 96 94 97 92 86 87 91 94 89 85 86 83 76 84 77 79 82
64 54 54 67 71 73 69 80 81 78 79 78 85 85 87 88 88 87 86 84 84 85 88 90 89 88 87 85 79 80 83 88 95 94 94 85 91 89 85 83 77 83 83 82
60 66 66 71 71 71 75 79 78 78 79 82 86 86 87 85 82 79 74 72 67 63 66 69 74 73 70 68 69 68 66 67 67 68 68 66 66 64 62 64 66 66 63 65
67 77 79 72 65 69 77 81 80 80 82 84 84 85 84 79 75 69 64 57 52 45 43 44 43 44 47 51 50 47 47 48 44 42 40 41 41 40 40 39 41 41 41 42
63 75 77 77 68 70 74 80 79 82 83 83 83 82 80 72 66 62 56 44 37 34 32 32 32 33 29 28 29 31 30 29 30 29 27 26 25 24 23 22 23 23 24 24
64 74 77 78 74 73 74 77 77 79 83 85 82 80 76 66 59 51 45 40 37 35 32 30 29 27 24 22 21 22 21 19 18 14 12 11 12 12 13 13 13 13 13 13
55 58 74 72 76 75 82 82 74 80 81 80 77 80 75 62 52 44 44 42 40 31 24 21 19 18 17 16 15 15 16 14 14 14 12 9 8 8 8 8 7 8 8 8
53 56 82 79 83 84 84 82 79 82 85 85 82 79 69 59 53 45 42 40 31 23 19 18 16 15 15 14 15 14 13 15 13 16 16 14 10 9 9 9 9 9 9 9
73 76 71 72 76 78 81 81 83 86 86 85 82 74 67 58 49 44 42 32 24 20 18 16 15 15 15 15 15 15 16 16 18 16 18 17 16 14 12 11 10 11 11 11
54 55 59 65 69 76 83 88 87 85 84 81 75 68 64 56 49 42 34 24 21 18 16 15 15 15 16 16 18 17 18 19 19 20 19 20 20 22 21 18 17 16 15 14
51 53 58 63 71 82 91 91 89 87 84 81 78 72 63 55 47 37 26 20 18 16 15 15 16 15 16 17 17 21 18 22 20 23 24 24 24 25 25 24 24 24 23 22
46 47 50 58 70 81 94 94 91 88 85 84 80 73 65 54 42 30 22 17 15 15 17 19 17 15 14 14 14 15 20 19 26 28 28 28 27 28 30 30 29 27 26 24
43 42 51 58 68 78 85 90 92 90 87 83 78 66 54 43 34 24 19 17 16 18 21 18 14 13 14 15 16 17 22 17 24 29 31 30 31 30 29 28 28 29 30 24
39 43 50 56 63 68 73 79 77 79 80 79 71 57 48 37 26 20 18 17 20 20 18 16 15 16 17 18 20 22 26 22 19 27 33 33 34 33 32 31 31 29 28 27
40 46 50 54 58 64 72 74 78 73 73 66 58 50 37 28 22 20 19 21 20 19 20 18 19 20 20 21 24 30 31 29 25 28 35 37 36 35 33 33 32 35 32 25
43 45 50 53 58 63 72 78 79 74 64 56 46 39 30 23 22 22 21 19 23 19 20 22 23 23 23 24 24 30 33 36 30 32 39 41 40 38 35 36 34 32 34 34
44 47 51 55 58 62 69 74 74 73 65 53 42 32 27 27 30 25 20 20 21 23 24 25 25 25 26 26 25 26 35 38 35 37 44 45 43 39 39 35 35 36 35 35
45 47 51 54 57 63 65 67 74 72 64 48 42 35 32 28 24 21 22 23 26 27 27 27 27 27 27 27 25 25 38 39 39 44 50 49 45 40 36 33 34 34 32 33
48 52 54 56 58 62 67 72 71 65 44 39 37 34 28 24 23 24 26 27 29 30 31 29 28 28 28 28 26 27 39 41 44 52 54 52 45 38 35 35 35 34 35 35
58 59 60 62 65 68 69 72 72 56 42 38 32 30 28 24 24 26 28 30 31 31 31 30 30 30 31 30 27 33 44 46 53 58 58 49 40 36 35 35 36 36 37 39
65 62 61 64 69 75 77 76 73 60 47 40 33 28 25 23 23 25 26 28 36 36 34 31 31 34 35 31 35 38 48 54 61 61 52 43 40 39 38 38 40 41 43 46
67 65 61 64 66 70 77 79 76 67 56 48 41 33 28 26 28 27 25 29 34 33 35 33 40 43 39 41 42 45 57 65 64 56 49 46 43 41 42 43 45 47 49 50
65 75 68 64 64 65 67 73 79 72 61 51 46 40 33 32 29 27 33 37 38 37 38 44 47 43 45 48 52 59 66 64 56 50 46 44 44 45 46 48 50 51 53 54
65 75 79 77 69 69 67 69 72 70 61 52 46 39 30 29 30 29 33 35 38 45 50 49 47 48 52 59 65 67 62 57 51 47 45 45 46 47 49 51 52 54 57 60
71 68 74 79 82 81 74 71 68 66 60 48 35 29 27 28 31 40 40 49 56 55 53 52 54 61 66 74 70 63 56 51 50 48 48 48 48 49 50 53 57 61 64 66
68 75 76 71 67 68 70 71 67 57 42 35 35 32 32 33 38 50 60 60 57 55 56 61 71 77 78 72 62 56 51 47 47 48 47 47 48 50 52 55 57 60 63 66
62 66 72 77 82 83 76 67 58 53 47 45 45 47 57 66 69 71 69 64 63 65 74 81 81 76 68 57 52 49 46 46 46 44 42 43 45 48 50 52 56 61 64 67

GFSNGP_prec_cthk_135.txt.gz
RH
66 70 88 91 83 62 58 63 76 69 76 85 84 82 80 84 86 80 80 76 74 80 85 87 84 78 77 78 86 92 92 94 96 93 98 93 79 87 85 81 74 81 87 95
69 65 63 69 61 63 66 67 74 75 85 83 83 85 86 89 84 77 72 65 59 60 58 59 62 65 65 65 60 57 63 73 76 80 74 74 77 77 71 67 70 66 69 75
64 61 60 62 56 63 65 63 67 81 84 85 86 88 90 85 77 72 65 55 45 40 42 42 39 42 44 46 48 51 50 45 46 48 48 56 52 49 47 48 50 51 52 49
74 76 80 60 61 61 63 64 71 81 85 84 87 87 83 80 73 67 56 44 33 28 31 32 36 35 33 32 34 33 32 32 36 36 35 35 34 35 34 33 32 33 33 33
83 79 69 70 66 70 69 67 71 76 81 86 88 86 83 76 69 58 46 35 31 30 30 29 28 29 27 26 27 22 26 26 24 20 18 20 23 23 23 22 20 18 17 15
74 78 82 68 64 66 71 73 66 70 78 83 87 90 83 72 64 52 40 33 34 33 31 27 21 19 18 17 15 17 16 16 15 13 13 11 11 9 8 8 8 10 10 10
59 66 72 61 62 67 77 70 70 72 78 82 88 89 79 68 59 49 38 38 35 30 22 19 17 16 15 16 15 16 15 16 16 14 12 11 10 9 8 8 8 8 7 7
57 63 75 61 66 76 75 72 75 78 81 85 87 85 75 68 57 49 44 42 35 24 18 15 14 13 14 15 16 15 16 16 18 19 18 16 14 13 11 10 10 9 9 9
67 70 72 72 66 60 60 65 71 80 84 88 89 85 75 67 56 51 45 40 32 21 16 13 11 11 13 17 17 16 16 17 17 18 17 16 15 14 13 12 12 12 12 11
53 59 61 59 53 53 56 65 74 82 91 92 90 82 75 67 60 53 46 37 28 19 15 12 12 13 13 15 15 14 15 16 16 17 19 21 23 21 19 18 17 16 16 17
54 47 46 50 52 54 59 68 82 87 87 87 85 80 72 66 60 55 45 34 23 17 14 14 14 14 13 12 13 13 14 15 16 16 18 21 24 25 25 25 26 26 24 23
49 39 38 42 49 55 62 68 84 88 90 86 82 79 74 66 60 50 40 29 19 16 17 15 15 14 13 14 15 17 18 20 23 24 22 23 24 25 27 27 28 28 26 24
35 34 38 42 50 57 65 72 80 90 91 89 89 84 77 67 58 51 42 29 17 18 17 16 15 16 16 17 19 21 22 22 23 23 23 23 25 28 30 29 29 28 28 24
30 33 41 42 48 56 65 69 75 81 85 87 81 76 66 57 50 42 33 21 18 18 16 18 18 20 21 21 22 22 22 22 23 27 30 32 33 32 32 33 31 28 27 25
35 36 39 44 49 53 56 60 68 73 76 75 75 68 60 53 46 35 23 19 20 17 18 20 22 24 24 23 24 24 25 24 25 30 34 34 35 36 36 36 33 30 28 26
36 37 41 43 47 52 57 61 67 76 78 75 69 60 52 45 32 24 20 22 20 20 22 23 26 25 25 24 24 24 26 27 28 31 36 38 38 37 38 36 32 31 30 29
37 39 42 46 50 54 59 63 71 73 73 72 63 52 38 30 27 23 24 23 23 24 27 27 27 27 27 26 25 26 29 30 28 35 42 42 42 42 40 37 33 32 31 29
37 39 41 46 51 55 61 63 66 68 71 70 62 52 43 39 34 29 28 28 28 27 28 30 30 30 29 27 26 28 32 30 31 41 45 47 47 44 40 36 35 33 31 29
41 43 47 53 58 59 63 65 71 74 72 63 43 38 40 38 31 29 28 27 28 28 33 33 33 31 29 28 28 33 33 33 39 47 51 51 48 42 39 37 34 32 32 33
49 52 56 55 58 61 67 70 75 76 71 49 42 38 34 31 34 30 28 27 27 28 30 33 31 30 28 29 35 37 34 39 49 54 55 51 44 42 39 36 35 36 38 39
54 58 60 57 59 61 67 72 76 75 72 54 47 44 36 31 29 29 28 24 25 32 35 31 31 29 31 39 44 40 38 47 57 59 54 48 45 42 40 40 41 42 42 41
53 59 65 62 58 61 66 73 78 78 75 66 56 53 47 43 39 32 28 30 34 35 37 35 30 34 45 50 47 45 51 59 62 56 51 49 45 42 43 43 43 43 42 43
52 55 62 72 67 64 66 68 71 76 78 74 65 58 52 48 45 42 36 37 39 39 36 35 42 50 52 50 50 60 65 63 57 53 52 48 46 46 44 43 43 44 45 50
58 60 63 70 76 78 73 70 70 70 72 74 70 63 56 52 46 41 34 34 36 38 42 52 56 57 54 58 69 73 67 60 57 55 51 50 48 46 45 44 43 46 48 51
57 60 64 69 69 70 75 79 82 78 74 69 65 62 57 49 37 37 38 40 44 54 63 67 64 61 68 76 76 72 66 61 56 51 49 47 44 43 43 44 46 48 51 54
54 57 59 64 69 74 77 77 73 68 66 67 61 49 39 36 38 44 51 62 72 74 73 65 70 81 81 76 70 65 60 54 49 46 42 40 38 38 40 42 44 47 50 54
54 56 57 60 63 68 70 71 77 82 85 82 77 74 72 73 77 81 83 81 79 73 71 80 83 79 71 63 58 52 46 42 39 36 33 33 34 37 38 40 43 47 50 52

GFSNGP_prec_cthk_138.txt.gz
RH
89 92 89 91 83 77 78 87 81 53 61 69 73 80 80 82 80 79 79 70 64 55 50 50 56 56 60 57 56 63 68 74 75 80 85 84 81 81 91 91 83 73 75 80
93 94 81 83 91 88 89 80 68 64 66 72 79 84 82 84 87 85 75 62 56 43 35 36 39 42 41 41 46 48 52 49 50 56 55 59 58 58 59 61 59 57 55 50
82 83 82 80 65 67 62 53 61 70 67 74 82 86 85 88 87 80 71 57 45 34 29 32 33 35 33 36 37 33 31 32 37 40 40 43 42 39 39 42 41 40 38 38
84 84 82 56 54 57 60 62 65 66 73 75 79 85 88 86 81 77 65 50 36 28 29 28 27 28 30 28 25 27 27 25 23 22 24 23 25 27 28 28 27 25 24 24
93 86 71 68 62 65 69 69 70 67 72 80 81 87 87 84 81 72 60 45 33 31 30 29 26 22 19 18 21 16 15 14 12 12 11 12 12 14 16 13 13 13 16 16
94 85 81 64 61 63 64 69 67 67 69 73 79 84 85 83 77 67 56 43 33 32 32 29 23 17 14 14 14 15 15 14 13 13 11 11 10 10 9 8 8 7 7 7
87 85 71 55 56 60 69 60 62 65 68 74 77 80 83 80 75 67 54 46 37 33 31 25 20 16 16 16 17 17 16 16 15 15 15 14 13 13 12 11 10 9 9 8
63 67 67 44 53 63 61 57 55 61 66 73 80 87 86 78 72 67 57 50 42 34 28 20 17 17 16 18 19 18 18 18 19 18 18 17 16 15 14 13 12 11 10 10
56 52 58 63 63 59 48 47 51 57 66 72 80 87 86 79 74 66 59 54 48 37 26 17 16 18 17 17 17 16 16 17 17 17 17 17 17 16 16 15 14 14 14 13
65 59 59 57 56 48 44 48 52 60 70 77 85 91 86 79 74 64 59 55 49 39 25 17 16 16 18 16 14 15 16 19 19 19 20 18 19 19 18 18 18 19 20 19
67 56 51 48 43 40 43 49 55 63 74 84 95 92 88 83 75 66 61 55 48 37 26 18 17 16 15 15 16 18 20 20 21 20 21 22 24 25 25 27 27 27 25 22
56 39 35 34 36 36 41 50 56 62 73 89 94 91 85 79 71 66 61 52 44 36 30 21 17 16 17 18 19 19 19 19 20 21 24 26 26 27 28 28 28 29 26 25
38 31 30 30 34 39 46 53 60 63 74 85 87 90 86 81 72 63 55 47 40 35 30 21 18 18 20 22 22 23 22 22 22 23 23 24 26 28 29 29 28 26 24 23
34 28 32 33 36 41 47 53 59 65 71 81 88 88 90 85 71 59 51 46 41 35 28 21 21 22 24 26 26 25 24 23 23 24 24 26 31 34 34 33 30 26 24 23
27 27 29 34 39 44 50 54 59 65 72 81 88 85 78 66 60 55 48 41 37 32 27 22 23 26 27 27 28 27 25 24 25 28 29 32 36 39 39 37 34 30 28 26
29 29 32 35 40 45 50 55 60 65 71 75 81 78 69 62 55 48 40 33 30 27 24 24 26 28 30 29 31 29 27 25 28 32 34 36 41 43 41 39 35 32 30 29
29 32 33 37 41 45 49 55 61 66 73 75 78 73 62 53 45 37 33 27 28 26 24 27 32 33 34 33 31 29 28 28 32 37 37 40 46 47 44 39 34 32 31 31
29 30 32 35 41 46 52 58 64 67 72 72 73 69 59 52 46 41 32 31 27 30 36 35 35 34 34 33 31 30 28 30 38 39 39 47 52 50 44 38 34 33 34 34
32 35 37 41 47 51 53 57 63 66 70 71 70 63 52 42 42 39 35 34 34 34 33 35 35 35 33 31 30 28 29 35 39 41 48 56 56 49 42 38 38 39 40 40
39 42 43 46 48 49 51 56 63 69 74 73 67 50 44 40 36 33 34 37 35 33 31 32 34 31 29 32 33 33 40 42 43 47 59 59 53 46 43 43 42 43 41 38
40 44 47 49 52 51 51 55 60 68 71 73 62 50 47 44 39 34 31 30 29 30 34 34 35 36 36 37 37 45 51 48 48 61 63 57 52 51 50 48 47 43 38 37
42 41 44 50 56 57 57 57 61 68 73 75 71 62 56 53 51 46 42 41 41 45 43 44 40 39 38 39 47 57 55 56 66 68 62 56 56 56 52 50 46 43 41 40
44 45 47 51 55 62 67 66 65 67 73 77 78 76 71 64 59 54 51 50 52 56 53 44 40 40 43 54 64 65 67 75 73 66 60 59 55 54 53 48 44 43 41 40
47 47 50 54 59 63 68 72 76 74 74 75 76 76 72 68 64 61 61 59 57 54 44 42 46 57 68 72 70 75 80 74 67 62 62 58 57 53 47 42 40 38 37 38
48 49 52 54 60 64 66 71 74 74 78 83 84 81 76 70 69 66 64 55 47 49 55 66 78 79 72 72 79 79 74 68 65 63 59 55 46 40 38 35 34 34 35 37
50 52 54 57 60 63 65 69 71 74 78 81 81 82 77 73 70 70 70 71 74 83 87 85 78 74 82 85 80 73 66 63 56 50 46 39 35 34 31 30 30 32 33 36
55 56 57 58 61 64 63 64 67 70 71 71 72 70 70 69 68 73 80 84 85 85 82 78 81 85 83 76 68 61 56 48 44 39 34 32 29 27 27 30 32 33 35 38

GFSNGP_prec_cthk_141.txt.gz
RH
87 91 93 95 90 87 92 92 93 76 89 78 60 58 68 77 80 78 74 68 68 57 41 31 33 40 40 36 37 38 45 48 54 60 57 60 62 69 79 75 87 88 88 88
94 92 93 98 98 96 89 82 81 83 80 67 56 65 74 82 85 81 74 70 66 51 36 27 27 35 34 36 33 33 33 34 35 38 46 44 44 53 56 49 40 52 58 62
94 88 95 94 79 83 77 75 68 72 57 58 64 71 81 88 86 85 77 67 60 46 35 25 26 25 34 27 26 30 25 23 25 31 28 33 32 32 35 37 35 39 36 34
94 93 94 73 75 70 68 64 61 57 59 61 68 75 79 85 85 84 75 65 51 43 32 26 25 23 21 29 21 21 19 15 12 11 18 18 15 22 21 17 23 28 24 22
92 90 77 78 69 65 63 59 62 65 70 70 73 77 81 80 83 81 76 63 50 41 34 30 26 23 19 16 24 15 14 12 12 11 11 10 12 10 9 12 11 9 10 11
95 91 95 77 64 62 58 65 62 63 68 69 72 75 74 79 81 79 72 61 52 45 36 31 29 24 17 15 15 15 15 15 14 13 13 13 12 11 11 10 10 9 9 8
91 96 80 66 61 58 58 54 54 57 60 63 68 68 71 78 82 78 72 60 52 48 42 33 31 25 17 17 18 18 16 16 15 15 16 16 16 15 14 13 12 12 11 10
98 95 78 59 53 51 48 53 51 50 50 53 56 62 68 78 83 79 71 61 54 48 45 38 32 25 19 18 18 16 15 15 16 17 18 17 17 17 16 16 15 14 13 12
72 61 48 45 47 56 56 49 42 43 47 51 56 63 69 77 83 77 71 63 55 49 45 41 36 27 19 17 17 17 18 20 21 21 21 20 20 20 19 18 16 16 15 15
64 58 57 57 53 48 44 41 40 44 49 55 60 70 75 81 85 81 71 61 57 54 46 42 37 31 19 17 19 21 22 21 20 20 21 21 22 23 23 23 22 20 18 18
71 62 59 48 43 42 42 40 40 46 54 60 68 76 84 91 90 80 67 63 64 55 46 43 38 31 20 18 21 22 21 20 20 20 21 22 24 27 29 33 32 29 26 22
58 47 42 30 31 35 37 38 43 50 56 65 73 81 91 92 90 80 74 71 62 53 45 40 37 30 25 21 22 22 23 23 23 23 24 25 26 26 30 33 35 34 32 29
46 38 32 28 28 32 36 41 46 52 56 62 72 81 92 97 86 79 79 66 56 50 46 43 38 33 30 27 26 26 25 25 25 24 25 27 27 26 30 33 33 31 30 27
39 33 30 28 29 33 37 43 46 51 58 62 68 77 89 88 84 80 74 63 56 51 47 42 37 33 31 30 29 28 28 27 26 28 27 30 28 29 33 37 36 33 30 27
32 27 25 28 32 34 38 43 46 52 57 61 67 70 82 89 88 71 62 58 53 49 47 43 37 32 32 33 32 31 31 33 33 31 31 30 31 33 37 42 40 37 32 28
27 27 29 31 34 35 38 43 49 55 60 64 70 75 78 78 67 62 55 49 43 38 38 37 36 34 33 35 35 35 38 39 35 32 30 32 37 39 44 47 44 39 35 33
28 31 32 34 36 38 42 46 52 55 61 65 68 71 70 69 61 54 50 46 39 33 33 32 29 31 33 34 36 41 40 37 34 32 31 38 43 45 52 51 46 41 38 36
28 26 27 29 34 39 43 47 51 55 59 65 68 68 65 60 59 55 47 43 34 34 36 29 28 34 41 41 39 39 37 33 32 32 34 47 49 54 58 53 46 42 39 37
30 31 31 34 38 41 43 45 49 53 55 60 62 65 64 61 56 48 41 39 40 40 37 37 40 40 40 39 37 34 33 33 34 34 43 54 58 65 60 52 47 43 42 41
37 39 39 38 39 43 45 45 48 52 54 62 65 68 63 52 42 39 36 34 36 35 34 36 37 38 37 36 36 36 38 40 37 39 56 64 69 65 59 54 50 49 48 45
41 41 41 41 42 44 47 47 48 52 57 64 66 67 60 45 43 43 40 36 34 31 31 36 41 44 47 48 49 48 43 40 42 61 71 75 71 64 59 57 55 53 50 49
42 42 42 44 46 48 49 51 53 56 60 62 67 69 65 58 53 51 51 49 49 48 50 54 56 60 62 61 54 46 45 55 72 74 77 73 68 64 60 59 56 53 50 44
45 45 45 49 52 54 54 55 59 61 63 68 71 74 76 74 71 64 61 59 58 60 65 73 75 70 64 53 49 57 75 81 80 82 77 72 66 62 61 57 53 46 41 37
46 47 48 49 52 55 58 61 63 66 70 73 75 77 79 80 77 72 68 62 63 67 69 72 67 59 59 66 82 84 82 85 82 75 70 63 62 58 52 46 40 36 33 29
49 49 49 51 54 57 58 60 63 67 70 74 78 80 82 82 78 75 74 76 77 78 76 72 75 84 91 85 80 83 86 80 74 70 62 58 49 45 40 35 32 28 26 27
51 52 53 55 58 59 61 63 65 67 69 72 75 77 78 77 74 74 76 74 71 68 72 82 84 80 76 81 86 82 77 71 64 56 49 43 41 37 33 29 26 28 29 30
59 59 59 60 62 62 63 64 65 67 68 69 71 72 72 72 76 79 78 80 84 86 87 84 80 84 87 83 77 68 65 56 49 43 41 38 33 29 26 27 30 31 32 35

GFSNGP_prec_cthk_147.txt.gz
RH
54 62 66 67 76 77 83 79 89 68 79 74 83 85 88 84 87 81 74 70 69 66 58 46 41 34 30 26 23 28 31 25 24 28 34 30 30 35 30 31 35 41 39 48
74 69 69 71 73 84 83 83 89 84 76 82 83 77 82 87 82 74 71 72 72 71 59 50 42 36 30 25 21 23 29 25 22 22 24 33 24 28 30 29 26 25 29 27
63 73 79 75 71 76 75 76 79 81 76 78 77 74 73 71 69 69 71 72 76 69 62 52 43 38 31 25 19 20 27 25 15 19 21 21 26 27 24 22 22 22 21 29
78 89 82 59 66 71 73 74 78 73 76 79 78 77 69 66 67 70 71 70 67 63 57 52 45 40 34 29 21 19 20 25 16 12 16 24 20 24 24 21 22 19 15 14
82 69 74 68 75 74 76 72 71 76 77 78 74 70 71 69 69 69 68 65 60 55 52 51 46 43 40 35 31 23 21 21 21 16 14 15 20 18 15 20 17 16 18 15
75 90 86 74 76 77 75 72 66 61 59 60 63 63 60 63 65 66 63 60 59 59 56 52 48 46 43 40 38 34 24 20 19 21 17 17 17 17 17 16 15 15 14 13
91 96 86 78 77 76 75 66 55 48 44 46 48 48 47 49 53 56 56 58 59 58 61 57 52 49 47 44 41 36 33 30 21 20 20 20 20 20 20 19 18 17 15 14
94 95 88 75 76 74 72 60 49 49 48 44 39 40 43 47 51 51 55 57 56 56 56 56 52 52 50 49 42 38 37 39 31 19 18 18 19 20 22 22 22 22 20 18
83 78 78 73 71 71 69 51 50 50 42 38 38 42 44 47 50 55 60 62 57 55 56 60 54 53 52 48 44 41 40 35 36 30 20 21 22 22 22 24 26 26 26 24
79 80 76 74 66 64 57 51 45 42 38 37 38 42 46 49 53 59 62 63 70 69 62 57 55 59 56 49 44 43 41 36 34 32 31 23 22 23 25 27 26 28 29 29
80 81 81 75 70 60 52 43 38 37 35 37 39 44 47 51 53 61 63 60 64 69 62 57 61 64 55 50 47 43 42 40 36 33 30 28 26 24 24 25 28 30 31 33
85 77 76 70 53 46 40 36 33 32 34 39 43 45 48 49 52 56 57 60 59 52 57 67 67 63 55 50 48 46 43 42 39 35 33 30 29 28 28 26 27 32 36 38
67 66 59 50 44 37 32 30 30 34 38 42 44 46 48 50 55 56 56 52 55 67 68 61 57 54 52 50 48 45 43 43 41 38 37 36 34 34 35 34 34 35 40 44
58 46 39 38 34 30 29 30 33 37 40 44 46 48 50 53 59 56 50 54 62 67 65 57 51 50 51 51 50 49 44 43 43 41 38 37 37 40 41 41 41 39 40 44
52 38 34 32 29 28 29 32 35 38 42 45 47 50 53 58 60 53 61 61 56 55 56 56 53 49 48 45 43 42 42 42 43 42 40 40 45 43 43 42 40 38 42 47
41 35 28 27 27 29 31 33 37 40 43 46 50 53 56 61 61 56 55 55 55 51 50 49 45 41 40 40 43 44 44 43 42 43 42 44 44 45 43 41 40 42 48 53
30 28 27 28 29 31 33 35 40 43 46 48 52 55 60 63 60 58 55 49 45 41 35 33 33 32 35 35 36 36 35 34 35 40 49 48 44 43 44 46 48 54 58 59
25 30 33 32 30 34 36 41 44 45 46 49 52 55 57 60 62 60 52 46 43 41 39 33 29 32 33 36 36 37 37 39 42 42 40 40 44 56 64 61 61 66 69 68
26 26 27 29 31 35 39 42 44 46 47 49 51 53 53 54 57 57 52 49 49 46 36 30 30 30 33 37 37 36 35 36 38 42 47 55 71 72 66 69 77 77 76 69
33 32 32 33 37 38 39 41 44 47 49 51 52 53 54 57 58 57 55 51 47 39 35 34 34 34 38 40 41 44 48 53 59 66 80 79 71 70 79 83 81 76 67 59
41 42 43 44 43 40 40 41 44 48 51 52 53 55 56 57 58 57 53 51 49 45 45 45 45 48 51 53 56 59 62 75 88 85 75 73 81 88 85 76 70 63 57 53
45 46 46 44 40 42 44 45 47 50 52 53 55 57 59 59 59 58 58 59 58 56 56 57 60 64 69 71 75 79 82 79 73 73 79 83 83 80 75 69 61 56 49 46
54 51 47 45 46 48 48 50 52 53 55 58 60 62 64 65 67 68 69 71 72 72 71 69 74 81 82 83 79 75 77 81 88 91 91 89 81 74 66 59 52 49 47 42
52 49 50 49 49 52 53 52 53 55 57 60 63 64 66 69 70 72 75 76 77 76 73 77 78 81 85 86 87 92 95 95 96 93 86 80 72 62 56 51 48 43 39 35
58 57 54 51 52 54 53 54 56 59 63 65 65 67 71 72 74 75 76 78 76 75 79 88 96 96 94 97 99 97 96 94 88 81 74 65 59 53 48 42 37 32 29 28
57 60 60 59 57 57 59 64 69 70 71 72 74 74 72 71 73 74 75 75 78 83 88 90 92 94 96 96 97 95 90 81 75 67 60 53 46 40 34 29 27 28 29 29
64 65 65 65 67 68 70 71 72 73 72 69 67 67 70 73 74 76 79 83 86 87 90 93 95 97 97 96 93 84 77 69 59 51 43 37 30 26 26 28 30 30 31 35

GFSNGP_prec_cthk_153.txt.gz
RH
37 38 48 47 50 54 50 44 64 56 46 48 56 68 77 78 80 78 81 82 86 93 81 66 56 58 64 59 48 40 36 34 34 30 32 28 23 29 33 36 29 27 24 25
62 58 55 52 49 52 48 47 51 47 49 55 59 65 66 75 77 79 79 78 80 80 74 65 63 63 57 54 49 44 42 37 34 28 33 33 31 22 29 37 33 22 22 21
63 61 55 53 55 47 37 36 48 57 60 64 66 68 70 78 82 79 76 76 72 64 67 66 62 51 51 49 49 45 43 40 38 30 28 29 30 29 23 27 32 32 29 20
66 64 61 32 40 51 57 56 54 58 64 73 75 78 81 83 84 82 77 69 69 70 67 65 55 53 48 45 47 51 48 45 43 39 32 30 28 29 29 24 26 27 25 24
73 63 46 45 51 66 59 52 67 69 71 74 75 76 78 81 82 75 68 68 68 66 61 52 50 46 45 48 54 54 55 52 48 47 43 39 34 31 30 29 26 23 20 16
71 66 59 62 75 60 51 68 72 67 66 64 54 56 70 61 59 58 57 55 55 52 49 49 43 42 48 48 51 53 52 52 49 44 42 39 34 37 37 35 34 32 26 21
80 74 51 55 65 55 70 79 80 72 66 54 47 51 52 47 44 44 45 48 51 47 45 46 45 47 46 48 45 50 51 53 48 45 41 41 43 47 45 41 39 39 37 35
63 71 68 60 70 70 78 79 77 73 70 58 48 45 42 39 40 43 44 46 48 49 53 54 53 51 49 52 53 53 56 54 49 44 41 43 44 47 45 47 43 40 40 39
77 76 79 76 70 73 75 77 76 73 55 52 40 37 38 37 39 42 42 46 48 52 56 56 53 51 53 46 50 56 59 57 52 46 43 41 45 52 51 43 41 41 39 38
73 71 69 73 73 76 77 75 65 59 54 46 35 36 36 37 40 41 42 45 51 54 56 56 54 51 56 54 53 56 59 55 55 54 51 49 48 48 46 46 47 46 46 46
73 73 75 73 75 77 78 74 69 58 49 39 33 35 36 38 40 40 41 47 51 53 49 50 51 48 52 54 57 61 57 52 53 52 53 54 48 46 48 36 34 38 41 44
82 79 79 83 84 84 84 80 71 54 42 33 32 34 38 40 40 39 41 46 49 48 49 53 51 47 48 51 56 61 58 52 53 53 54 53 52 50 41 39 37 35 36 40
81 78 77 76 74 74 74 70 55 42 31 31 34 38 40 41 41 41 43 46 47 44 47 49 48 49 52 56 62 61 60 56 56 59 55 50 49 49 51 46 45 45 42 44
77 72 72 68 63 55 49 39 32 30 31 36 38 40 42 43 43 43 46 47 46 47 42 41 45 53 55 55 53 54 56 58 56 53 52 53 53 49 46 50 51 54 49 50
80 76 74 70 70 53 35 29 30 32 36 38 40 42 44 45 46 47 48 50 49 44 44 49 52 52 46 45 44 44 45 46 45 47 44 45 44 52 52 48 44 48 54 59
83 79 77 76 66 43 31 31 32 36 38 40 41 44 46 47 49 50 51 52 46 49 53 52 46 40 39 40 40 41 41 42 40 47 46 47 49 49 49 51 56 58 63 75
81 78 76 70 48 32 31 33 35 37 38 39 42 45 47 50 53 53 53 50 55 57 50 48 47 43 39 37 37 44 40 40 37 45 49 52 53 54 56 58 62 80 87 82
76 74 63 46 33 31 33 34 36 39 40 41 44 45 48 51 53 55 54 54 56 54 54 51 45 43 44 43 39 43 43 45 46 48 54 54 55 62 65 77 94 91 89 90
69 56 39 32 32 35 35 34 38 40 42 44 44 47 49 52 54 54 52 52 55 57 54 51 48 45 41 37 34 41 48 51 55 59 61 64 66 75 92 97 92 91 95 94
35 28 29 32 34 35 36 38 40 41 43 45 45 46 48 49 50 51 52 54 55 55 53 51 49 46 44 43 43 55 58 59 63 67 70 76 89 98 93 92 94 95 93 87
32 32 34 35 37 39 41 42 44 46 46 46 48 49 49 49 51 52 54 56 60 59 56 55 55 54 52 50 52 62 65 68 72 76 85 90 88 90 95 97 95 88 81 75
36 35 35 36 39 41 42 46 48 49 46 46 52 54 53 53 53 55 58 67 67 62 63 64 61 59 60 59 66 70 75 79 84 85 86 91 96 98 97 92 86 80 74 67
42 42 43 46 51 53 53 53 51 53 54 54 56 56 56 56 58 63 66 67 68 69 67 64 64 62 64 69 78 83 86 87 90 94 97 97 97 93 87 82 71 62 56 48
55 55 54 57 60 59 58 56 56 57 58 58 58 60 63 67 70 73 76 75 70 67 70 69 69 71 76 84 88 90 94 96 96 96 97 96 89 79 68 56 46 37 31 28
58 57 60 64 63 60 59 60 62 63 63 65 68 72 74 77 77 75 72 72 74 74 75 75 76 80 88 94 97 98 98 98 98 98 91 79 65 50 39 31 26 24 26 28
66 69 67 64 65 65 66 67 70 70 72 75 76 76 77 77 77 78 78 77 76 77 77 80 86 93 97 98 98 98 97 96 91 76 58 42 32 26 23 23 26 28 29 31
73 70 69 70 71 71 72 73 73 76 78 78 76 77 78 79 81 80 78 76 77 79 82 87 95 98 98 98 97 96 92 74 52 38 30 25 22 23 25 27 28 30 32 35

GFSNGP_prec_cthk_156.txt.gz
RH
28 33 34 37 38 39 51 50 69 72 58 40 39 55 58 64 66 68 69 74 78 80 83 83 77 68 64 54 55 59 51 50 45 42 37 36 30 31 32 29 21 24 26 19
45 43 45 48 50 49 44 30 30 32 34 36 57 70 74 72 67 66 70 76 77 76 74 68 67 66 59 61 56 51 49 49 47 44 42 38 34 27 29 28 25 17 17 21
54 54 55 58 50 50 38 41 39 35 33 57 70 73 61 73 77 79 80 81 78 75 72 69 64 60 61 55 50 45 44 46 51 50 46 44 38 32 28 25 24 21 16 16
66 64 72 43 39 36 26 43 56 66 66 58 58 76 80 78 79 85 85 82 79 70 66 66 60 60 51 44 43 41 45 49 55 58 55 50 48 42 36 29 22 20 19 18
75 71 55 42 41 49 72 77 75 60 55 70 75 67 64 71 74 75 75 72 64 62 60 54 50 44 40 40 41 43 43 46 51 55 56 52 51 50 49 43 36 28 24 23
78 86 70 42 60 63 73 73 58 54 72 71 62 67 66 64 58 53 51 48 49 48 48 47 44 39 37 38 41 41 44 44 51 50 48 49 51 48 47 48 50 44 41 36
87 82 59 47 73 83 81 65 62 73 77 72 66 64 53 51 46 42 41 42 46 46 45 47 41 40 43 44 35 34 43 42 48 50 48 44 44 49 51 50 50 49 45 41
81 81 70 51 55 58 70 70 72 75 75 74 71 55 46 40 41 40 40 41 45 44 47 47 47 49 47 45 44 42 44 49 49 46 47 43 42 46 50 57 47 46 47 46
68 66 76 71 77 80 70 65 75 77 74 68 55 46 36 38 39 39 39 41 42 41 48 51 51 50 50 45 43 40 42 46 50 47 47 46 48 50 51 50 51 52 51 50
84 74 84 88 83 74 67 75 76 78 68 64 52 41 33 36 38 38 38 39 38 40 47 50 49 49 50 44 45 44 47 51 51 52 53 53 49 45 42 43 48 47 44 39
88 72 69 73 83 77 75 78 77 77 73 63 49 39 33 36 37 36 37 37 38 43 46 48 46 45 48 45 46 48 49 53 55 48 52 49 48 46 44 42 41 40 39 40
88 78 77 80 80 82 81 82 82 81 75 63 45 33 34 36 38 37 36 37 40 43 44 43 45 46 46 43 43 46 52 56 57 55 53 54 55 55 54 51 45 43 42 40
76 78 80 77 78 76 72 70 66 63 55 40 34 33 36 38 39 38 38 40 41 43 43 43 46 45 44 42 45 50 55 59 52 52 52 58 55 53 56 55 53 49 46 45
80 80 79 72 69 69 67 62 53 45 36 32 34 37 38 39 39 40 41 43 43 42 42 42 41 41 42 50 51 52 48 49 50 48 46 45 46 46 43 46 49 50 49 46
82 81 81 77 73 71 72 62 44 33 31 33 36 38 39 39 41 44 44 45 44 45 45 41 44 49 49 50 48 46 43 43 44 43 40 39 37 38 43 46 48 49 56 57
84 84 86 81 79 77 73 60 33 31 32 35 38 40 41 42 45 46 46 46 47 48 44 46 53 50 44 40 39 41 45 48 45 45 41 38 43 45 48 51 55 60 62 70
87 88 87 82 77 72 63 42 31 33 35 37 39 43 47 45 46 48 49 51 51 49 54 55 50 48 46 42 39 46 48 48 44 42 44 46 49 51 54 60 66 70 80 90
89 85 80 78 73 59 47 35 34 34 37 41 46 47 46 48 49 50 51 54 50 53 56 52 54 55 49 45 44 51 50 48 45 45 52 56 56 61 67 71 79 90 96 91
81 77 74 70 58 48 38 34 36 39 41 43 44 46 49 53 53 53 53 52 51 52 52 55 57 54 48 45 44 46 51 53 56 58 61 63 68 70 74 81 92 90 88 91
76 67 59 52 42 36 34 35 39 41 43 45 47 53 53 52 54 55 53 52 53 54 53 54 58 57 53 53 51 53 59 57 59 65 68 71 74 81 86 89 87 93 96 94
54 47 38 35 36 37 39 40 41 43 43 45 52 54 50 49 53 56 55 55 55 54 58 61 60 61 61 56 52 59 58 61 65 70 76 84 91 93 93 95 96 96 90 84
41 39 38 38 38 39 39 40 44 47 50 52 53 54 53 54 57 57 57 61 65 66 66 66 67 64 61 57 60 64 68 74 81 88 92 95 96 98 98 99 96 87 78 66
41 39 39 41 41 42 46 52 54 53 54 54 54 56 58 59 61 63 66 69 70 71 70 68 66 65 63 65 71 75 81 89 93 95 97 98 98 98 96 87 73 56 40 30
50 49 49 52 55 59 59 60 59 57 57 58 60 61 63 67 71 75 77 78 75 70 73 74 73 71 72 78 80 86 92 96 97 97 98 97 95 84 65 44 30 25 22 23
59 60 59 58 60 62 62 60 60 60 62 65 66 67 71 76 77 78 78 77 75 78 79 79 76 76 81 82 86 94 96 97 97 96 94 83 60 40 29 25 22 22 24 26
68 67 66 68 69 66 64 65 68 69 70 71 72 75 77 79 79 83 83 81 82 82 79 77 80 81 83 88 95 98 97 96 94 82 59 41 31 27 23 22 23 24 26 28
77 77 75 73 70 71 71 72 73 74 74 75 79 80 80 80 81 83 81 80 79 77 77 80 82 86 95 98 97 96 95 84 61 44 35 29 26 23 23 24 25 27 30 33

GFSNGP_prec_cthk_159.txt.gz
RH
29 28 28 30 31 32 36 37 56 42 48 49 48 52 52 49 58 79 83 73 67 68 66 66 74 73 66 64 65 62 58 49 47 50 50 47 44 40 35 28 23 20 20 18
46 44 44 45 42 40 39 40 45 43 42 33 30 42 52 62 80 82 72 73 75 76 73 77 73 67 65 61 61 55 49 45 45 47 48 46 44 41 38 32 27 24 19 18
56 52 53 55 44 47 46 47 51 52 44 46 48 49 68 75 73 79 75 78 82 82 81 75 69 69 61 58 55 46 40 39 42 44 47 52 49 44 41 37 31 29 24 20
66 63 69 43 43 48 49 47 46 53 58 71 66 60 60 74 71 72 74 78 81 79 76 71 62 55 51 43 37 35 36 41 45 45 46 47 54 50 47 44 39 37 33 31
74 71 56 45 54 52 54 58 62 63 88 76 59 71 74 71 68 62 63 68 66 61 55 52 45 43 39 35 34 32 34 34 44 44 47 49 48 50 49 48 47 47 45 39
85 88 80 56 63 61 68 69 70 71 70 65 67 75 70 70 67 55 49 46 42 41 41 43 42 39 35 31 31 36 35 36 38 41 37 43 46 48 53 55 55 52 46 38
88 91 73 59 64 61 82 80 78 73 66 74 76 75 67 61 48 40 40 38 38 40 42 41 39 38 35 34 37 36 36 37 41 44 43 42 41 44 44 46 48 44 41 42
96 95 82 64 61 69 72 65 68 65 68 75 77 73 60 46 37 34 35 38 40 41 42 40 40 39 40 38 36 39 40 39 40 42 43 42 43 44 41 42 47 52 51 46
89 81 65 65 72 80 85 75 69 65 68 72 70 64 52 41 35 34 35 38 38 39 42 43 42 41 42 42 38 37 36 33 37 42 46 45 45 46 48 48 48 45 45 40
92 78 74 78 80 76 76 73 72 70 74 75 71 66 49 39 35 33 34 36 37 39 42 42 41 40 42 39 37 37 38 37 39 44 47 47 48 48 45 46 48 48 47 43
96 97 87 85 85 77 83 83 80 78 76 75 74 67 49 34 35 33 34 35 35 37 41 41 41 42 45 42 39 39 40 40 42 47 48 48 50 48 48 49 50 49 46 44
93 90 86 81 79 77 81 78 74 77 79 77 74 62 37 31 33 33 34 35 34 38 42 44 40 39 43 41 38 38 38 41 46 47 50 48 47 48 51 53 48 44 46 46
88 86 81 80 77 78 76 72 64 62 60 59 55 42 31 33 35 34 35 36 37 43 44 45 41 42 42 39 36 38 41 47 51 52 49 49 50 50 47 46 46 44 43 43
75 76 74 74 76 75 70 67 69 68 55 46 42 35 34 37 38 36 37 39 43 46 45 45 45 43 39 40 45 48 48 50 46 42 43 44 45 44 42 42 40 41 44 48
69 74 78 76 78 75 75 72 70 70 55 39 38 36 37 40 40 39 41 44 47 48 45 44 43 44 49 53 54 51 47 47 47 49 49 48 47 42 39 39 42 46 50 55
73 79 82 80 82 81 80 77 73 65 53 34 37 39 40 42 42 43 46 46 47 47 47 45 41 50 56 54 51 50 50 48 46 48 49 45 42 41 46 51 54 57 61 65
85 87 86 86 86 86 81 73 64 57 43 37 40 41 41 44 46 49 51 52 52 51 49 48 54 51 48 49 53 53 50 48 48 49 49 49 49 52 56 60 65 69 72 79
89 89 89 83 82 80 77 66 55 48 39 39 41 44 46 48 47 51 55 56 57 53 49 54 52 52 54 50 49 53 54 56 57 56 56 59 59 60 61 66 71 73 83 88
84 84 84 81 79 77 68 57 49 43 38 42 45 46 46 48 52 58 59 57 58 56 54 55 56 56 52 53 54 59 63 63 59 59 58 60 65 69 74 77 82 89 93 95
81 84 81 76 71 61 55 49 41 39 41 44 45 49 51 54 59 60 56 55 58 58 56 55 56 59 61 58 58 59 61 59 57 59 62 68 75 80 87 95 98 98 97 98
81 75 64 59 51 43 40 39 40 42 44 45 48 52 56 58 58 59 59 60 59 59 62 64 66 66 64 63 59 58 58 61 64 68 73 79 88 95 98 98 98 98 98 94
48 52 51 46 41 42 42 42 41 42 46 51 53 55 56 57 58 59 60 62 65 68 70 70 70 68 65 62 62 65 68 72 75 77 85 94 98 99 99 99 98 95 77 54
41 41 42 42 42 42 42 42 47 53 56 56 56 57 58 58 59 62 66 70 72 74 73 70 68 71 71 72 73 75 76 79 83 87 95 99 99 99 99 93 73 50 34 27
48 45 45 47 47 47 52 58 58 58 59 58 58 58 61 61 64 69 74 75 74 77 77 76 77 77 77 77 78 80 82 85 92 97 99 98 97 91 70 48 36 28 25 23
61 60 60 59 58 58 60 60 61 62 62 63 64 64 66 68 73 76 78 79 82 82 83 82 82 78 77 79 81 83 89 96 98 98 97 90 71 50 40 31 28 26 24 24
65 65 65 66 69 69 67 69 70 68 69 70 70 72 74 77 80 80 80 81 82 81 80 81 80 77 80 83 87 96 98 97 97 92 74 55 42 37 31 30 27 25 25 27
79 79 79 77 78 78 75 72 72 72 73 76 78 80 81 80 80 78 78 80 79 79 79 78 79 81 85 94 98 98 97 94 79 57 45 40 35 31 31 29 27 27 28 31

GFSNGP_prec_cthk_162.txt.gz
RH
35 32 32 33 30 27 50 58 64 40 42 34 28 30 29 37 46 50 53 63 73 79 75 76 71 65 70 70 62 59 62 56 47 41 38 40 42 41 38 37 36 32 28 27
42 39 40 47 48 40 35 34 34 34 40 36 45 43 44 38 42 55 73 73 76 81 82 81 76 78 75 66 62 59 51 43 39 33 36 39 36 35 37 35 38 36 31 30
52 49 52 57 38 39 40 42 45 48 42 46 49 50 53 55 64 69 67 75 78 82 84 84 83 80 70 61 55 49 36 32 31 32 38 43 38 38 38 40 40 41 35 34
69 60 65 38 36 42 49 48 47 48 47 45 58 64 67 66 66 64 69 70 74 77 80 80 76 64 56 49 41 32 30 32 34 34 36 36 40 40 41 44 45 46 45 45
69 64 54 46 49 49 56 52 53 52 59 65 71 69 59 65 66 65 62 58 63 61 58 51 48 45 41 38 30 29 30 31 32 36 40 38 35 41 45 51 48 47 45 40
77 85 83 58 60 63 61 64 66 58 71 71 67 68 71 70 65 65 60 51 46 41 38 40 40 41 37 31 30 30 33 33 35 37 36 37 39 42 41 41 44 42 38 35
86 86 74 64 64 63 66 58 66 72 69 67 67 70 72 74 70 58 40 39 39 36 38 40 41 38 34 33 33 36 33 34 37 37 38 39 40 40 40 39 41 43 44 43
85 96 85 69 71 71 67 67 67 66 64 68 70 72 71 66 58 40 34 36 36 37 40 42 42 40 37 38 38 33 32 35 33 34 35 37 39 42 44 43 40 40 43 41
95 86 79 81 79 75 78 80 76 67 67 68 71 75 69 61 50 36 34 36 37 40 43 43 43 41 39 39 35 33 33 32 30 30 35 40 42 42 43 47 49 47 44 44
89 92 90 89 85 80 81 75 72 76 76 77 77 77 74 65 52 34 35 37 40 43 42 40 44 43 40 38 35 32 32 32 32 34 36 40 42 40 39 39 40 43 46 48
88 91 92 87 91 84 82 79 75 78 79 80 79 78 78 70 46 33 35 35 39 39 40 43 44 45 41 39 36 34 33 34 34 36 39 43 46 44 41 41 42 44 46 43
91 94 96 90 86 82 82 77 71 68 65 67 76 80 74 59 37 32 34 36 38 39 42 43 46 46 43 43 41 36 35 38 37 40 45 48 51 48 46 47 49 46 43 42
88 83 88 82 80 79 82 81 77 64 60 63 58 54 49 44 36 35 35 36 37 39 41 44 49 43 44 46 44 41 39 42 47 51 53 52 49 47 47 47 48 46 41 40
71 73 77 76 77 77 80 81 75 68 67 65 60 44 41 43 38 36 36 37 38 40 44 51 50 46 44 42 41 45 51 57 58 57 52 51 51 54 56 53 49 42 44 49
69 68 74 77 77 79 82 80 77 74 70 68 62 46 37 39 38 37 37 38 41 45 49 50 48 46 43 44 49 53 54 55 58 56 56 56 54 55 53 51 47 51 56 58
79 75 78 79 83 83 84 83 81 79 75 65 58 49 38 40 39 38 41 44 49 53 55 56 52 45 49 52 54 53 50 51 56 59 61 60 59 57 53 52 56 57 56 57
84 87 85 85 87 86 86 87 86 76 67 60 56 45 41 41 42 44 48 51 52 54 58 57 52 52 55 51 49 53 54 54 55 57 59 59 59 57 55 54 55 58 65 73
86 90 92 92 89 86 86 83 79 69 61 57 52 43 43 46 48 48 50 54 59 60 60 54 54 60 58 59 59 56 55 58 59 59 58 56 56 56 60 66 71 77 84 88
92 90 88 86 86 85 85 82 71 66 58 51 48 45 47 49 51 53 58 61 62 62 58 56 62 62 59 59 60 63 62 64 67 65 62 62 65 68 71 75 81 89 96 98
92 87 86 88 86 83 78 72 65 57 52 49 46 47 48 50 53 59 63 63 62 61 59 61 62 62 64 64 64 65 67 68 67 67 68 71 75 76 80 85 94 98 99 98
78 77 86 83 75 71 64 58 50 46 45 46 48 49 53 58 61 62 63 62 63 64 64 65 68 70 70 69 65 62 65 72 75 76 77 78 80 83 89 96 98 99 99 99
59 56 57 60 58 54 49 44 45 46 46 46 51 56 58 60 62 62 63 63 64 66 71 73 72 71 70 69 70 71 73 75 77 77 78 82 87 95 99 99 99 99 90 65
53 48 44 48 53 49 44 43 43 44 47 55 59 61 60 61 62 63 65 66 69 74 75 75 75 77 79 78 77 77 78 79 78 81 86 94 99 99 100 99 90 67 50 41
54 53 52 47 46 46 44 44 49 55 61 62 63 63 63 65 68 67 69 72 76 79 81 80 80 82 80 78 78 79 78 80 84 91 98 99 99 99 88 68 51 41 36 32
66 61 59 59 59 58 57 58 60 61 62 65 68 68 69 71 72 74 77 80 82 82 79 80 82 81 80 79 79 80 82 88 96 99 99 98 88 69 54 42 39 35 33 34
68 67 67 67 67 68 68 68 69 71 73 73 70 71 73 77 80 83 83 83 82 80 81 82 79 80 80 80 81 86 94 97 98 97 91 72 55 45 40 39 34 33 35 34
82 80 80 81 80 78 76 79 81 77 74 73 74 77 80 81 82 83 83 83 83 83 81 80 82 81 79 84 93 96 97 97 94 80 56 47 43 40 38 35 35 36 35 33

GFSNGP_prec_cthk_165.txt.gz
RH
53 55 53 47 39 34 38 32 45 32 38 37 39 40 41 37 35 35 40 45 44 50 65 75 78 74 71 68 71 75 62 62 55 42 35 29 30 28 29 29 30 30 34 33
53 48 44 45 47 40 34 35 37 34 37 29 27 31 33 36 43 40 42 49 68 73 74 79 80 80 76 75 81 67 60 53 37 29 30 28 33 36 36 32 33 28 31 37
53 49 48 48 36 34 37 39 41 46 37 38 39 41 42 42 45 54 59 63 69 75 81 82 86 84 79 84 69 55 49 33 29 30 33 35 33 31 32 33 35 40 43 44
68 59 67 37 33 39 46 46 46 44 41 44 43 45 54 50 64 64 70 72 72 71 74 80 82 78 78 60 49 43 33 27 29 34 35 37 35 32 32 37 38 40 39 38
69 68 51 37 44 52 53 49 51 48 48 53 55 59 70 69 63 60 63 60 67 66 62 63 61 56 51 44 40 34 28 28 33 34 36 37 37 35 38 41 40 39 37 36
79 73 65 48 61 67 66 67 52 55 62 63 68 69 65 63 70 68 70 65 58 49 46 43 41 39 39 38 36 29 30 33 37 36 36 36 38 40 40 38 37 34 36 40
79 81 65 52 61 70 74 63 52 66 71 71 70 66 63 66 70 73 67 49 38 37 37 35 35 37 39 38 33 33 35 39 35 35 36 38 39 38 37 37 37 34 35 35
78 81 77 71 73 79 69 67 70 69 73 74 68 68 68 68 69 65 53 38 35 35 35 38 40 41 40 38 37 39 41 36 35 36 35 38 39 42 40 39 38 38 40 41
98 95 87 83 85 87 84 77 81 80 76 73 74 74 76 75 72 65 53 36 36 36 38 43 45 42 40 41 41 41 37 37 37 35 33 34 38 43 43 41 40 41 41 38
92 75 83 85 89 81 82 79 81 79 78 79 79 80 79 79 77 70 54 34 36 38 42 44 42 40 42 44 46 42 37 36 33 30 32 36 39 42 43 41 41 41 41 41
79 83 86 89 92 90 90 83 85 83 81 80 79 79 79 81 79 74 54 35 37 40 43 43 40 42 43 48 47 41 39 38 37 37 37 42 46 48 48 46 45 45 45 47
69 79 86 84 87 87 88 86 81 77 71 64 64 65 70 77 74 62 51 38 39 42 41 41 45 45 47 47 44 40 39 38 39 40 42 45 49 51 53 53 51 50 50 51
56 68 77 77 77 79 81 82 78 75 71 64 66 66 60 48 46 47 47 40 40 40 41 44 46 48 49 45 46 44 41 39 39 41 46 52 56 58 56 54 54 54 54 52
64 74 69 74 71 75 76 78 79 76 73 70 71 69 64 52 44 48 48 40 39 41 42 44 47 47 45 49 50 45 42 43 48 52 55 57 58 59 61 59 59 60 54 53
55 62 62 66 68 75 77 75 77 80 76 75 75 73 63 58 48 42 42 40 40 42 44 47 49 49 50 50 47 46 53 57 58 57 56 55 59 63 64 65 64 60 55 56
70 70 77 77 71 74 75 80 81 81 81 79 81 73 64 60 49 40 40 40 42 45 47 50 52 53 52 52 57 61 59 54 53 57 58 60 65 66 68 69 63 57 57 58
73 75 78 85 85 82 86 89 90 87 86 84 71 65 61 60 44 41 42 43 45 47 53 57 58 54 51 55 61 60 58 61 62 62 64 66 67 67 64 61 60 62 65 66
73 76 83 88 92 97 98 96 94 87 80 71 66 61 62 54 45 45 45 46 50 57 60 61 59 53 54 61 61 62 66 66 66 66 67 67 67 67 66 68 70 72 73 79
79 80 87 92 92 91 90 90 90 87 78 69 63 61 57 49 48 49 50 52 55 61 62 62 60 58 63 63 66 71 70 69 67 68 68 67 66 71 74 77 80 83 86 91
61 69 84 87 86 88 90 90 84 77 71 64 62 57 55 51 52 53 55 61 63 63 64 63 63 64 68 72 73 73 72 70 71 73 76 77 79 81 81 81 84 90 97 99
68 71 82 80 85 85 84 80 73 69 63 58 57 55 52 53 55 62 65 65 65 66 67 66 66 70 73 74 74 72 72 77 79 80 80 80 79 79 82 87 95 99 100 99
69 70 65 62 62 65 64 63 60 56 55 52 50 49 53 61 64 66 67 67 67 68 69 69 71 73 75 75 76 78 80 80 79 78 79 79 81 85 92 97 98 99 99 88
69 62 56 53 52 57 60 55 51 48 47 47 48 56 64 70 71 69 67 68 71 70 71 73 76 79 80 80 81 80 79 79 80 80 80 83 90 95 97 98 98 87 69 56
67 63 60 60 56 54 53 50 48 46 47 48 59 68 69 70 70 70 72 72 73 75 79 82 82 80 79 80 80 78 78 81 80 81 90 95 96 98 98 88 69 59 45 41
68 68 66 61 61 62 60 56 55 57 61 66 68 70 73 73 73 73 74 78 82 84 85 84 82 82 84 83 81 83 83 80 85 94 96 97 97 90 70 58 48 41 39 36
76 71 70 69 70 72 73 71 70 70 72 76 79 77 74 75 77 81 85 85 85 85 85 85 84 84 85 84 84 81 80 87 94 97 97 92 74 57 49 42 39 37 35 36
87 82 80 79 79 81 83 83 81 81 82 80 78 78 79 82 84 84 85 86 86 86 86 85 87 89 86 83 80 82 88 94 97 95 85 60 49 44 39 37 36 35 36 36

GFSNGP_prec_cthk_168.txt.gz
RH
52 53 57 57 56 57 59 53 52 28 28 21 19 18 27 31 36 39 40 40 39 43 55 59 58 79 79 79 73 73 80 74 64 56 39 31 24 24 25 29 32 31 31 27
62 58 58 56 53 52 46 37 37 34 35 26 24 32 32 30 32 36 42 46 43 44 50 67 81 82 84 81 80 80 85 69 55 40 31 26 26 29 30 28 31 32 34 36
66 61 63 59 53 42 37 38 40 44 34 37 39 42 41 42 45 47 49 51 60 63 65 73 82 86 85 87 81 88 73 52 42 30 27 29 31 31 29 29 30 32 34 33
81 76 79 46 37 35 40 40 44 46 43 43 44 44 44 47 55 52 60 71 69 72 74 75 76 80 83 81 83 70 50 42 31 28 31 33 33 33 31 31 33 35 34 33
82 78 57 44 33 50 59 51 51 49 50 50 52 58 58 64 73 75 70 61 63 64 67 73 74 77 74 65 59 47 40 33 29 31 34 37 35 32 34 36 33 31 29 30
87 82 73 45 48 64 67 64 58 55 54 58 65 74 66 63 67 68 72 71 70 72 62 54 57 55 48 49 43 38 35 31 31 34 40 38 35 37 40 38 33 31 30 29
75 92 78 56 63 63 67 69 65 64 68 71 69 71 68 66 69 72 73 73 66 54 39 41 45 40 42 39 38 36 34 33 34 41 40 37 38 38 38 38 36 35 34 33
82 86 75 57 66 72 74 77 76 76 76 76 75 73 71 73 71 71 71 67 56 39 37 39 38 37 37 39 38 35 34 36 41 41 39 38 37 37 39 42 40 38 38 38
73 72 82 76 82 81 82 86 87 83 85 83 77 76 78 78 79 79 76 71 58 37 37 37 37 40 41 39 36 35 37 44 43 40 41 38 36 37 40 43 43 41 41 41
93 81 78 78 82 85 92 85 86 87 85 82 81 81 83 83 82 83 81 76 65 38 39 42 45 43 41 38 37 39 45 45 42 41 39 36 36 38 42 43 46 46 43 41
87 71 67 71 80 88 91 91 90 88 85 85 84 82 82 81 82 85 83 80 70 45 42 45 46 42 41 39 38 41 44 42 40 37 34 36 39 41 43 45 47 50 48 47
70 60 56 64 76 86 81 84 95 90 87 81 71 66 66 67 66 69 70 65 58 48 43 46 43 41 41 40 40 44 42 38 36 35 34 37 40 41 44 48 54 55 52 52
39 37 44 58 75 83 79 83 88 87 82 74 68 64 69 67 63 55 49 49 49 47 45 43 44 43 41 42 43 42 43 43 39 37 38 39 41 45 53 58 56 56 59 60
36 43 48 56 68 73 75 74 82 86 82 79 72 69 71 69 65 59 56 46 48 45 42 44 45 45 44 43 46 51 51 48 44 43 44 49 56 59 58 57 60 65 67 66
47 49 45 52 59 67 68 71 79 82 85 85 78 75 74 71 70 65 60 47 43 42 43 45 47 48 47 48 53 54 50 51 55 59 63 64 61 58 60 66 69 71 72 65
55 58 63 63 70 74 72 68 79 84 85 87 83 79 79 77 70 65 61 50 43 43 45 48 50 49 50 54 53 52 55 60 63 62 60 63 68 70 71 73 74 73 66 65
64 60 65 69 71 79 84 79 81 85 89 88 87 88 77 70 66 64 58 48 45 46 49 49 51 57 57 55 55 58 62 61 60 66 71 70 71 73 75 75 71 69 73 78
61 63 70 74 80 85 90 92 93 95 94 92 87 80 72 70 67 65 56 47 46 47 51 52 57 60 57 57 62 64 62 64 71 71 70 71 72 71 69 70 74 77 79 78
73 75 76 81 87 92 94 94 93 93 89 85 83 77 73 68 66 60 52 47 48 50 51 54 61 61 58 61 65 67 71 73 71 72 71 70 71 72 73 77 81 82 82 85
67 64 69 79 88 91 90 91 89 86 84 79 73 72 68 66 62 59 50 50 52 56 61 63 63 64 62 66 70 71 72 71 71 73 76 79 78 77 79 80 81 84 90 97
66 71 76 79 87 90 84 82 83 82 79 74 71 68 65 61 59 54 52 58 62 63 66 67 66 67 68 70 71 73 74 75 77 80 81 79 78 80 81 82 88 95 96 97
67 71 80 77 69 70 68 69 72 69 68 66 62 61 57 54 54 57 63 69 71 70 69 71 72 71 71 74 77 77 77 78 83 84 80 80 82 81 84 92 95 96 97 96
66 68 69 66 57 54 53 61 59 60 61 59 56 54 54 56 64 70 73 72 72 72 74 73 73 76 79 80 78 77 77 79 82 80 84 84 80 85 92 96 96 96 84 68
67 67 66 62 59 58 56 57 57 58 59 57 55 55 60 67 72 74 75 76 76 74 74 79 82 82 81 81 81 80 80 82 83 85 83 81 86 92 96 96 87 67 59 49
73 68 69 68 62 63 64 62 58 56 56 58 62 69 73 76 79 78 77 77 78 83 85 85 84 83 82 84 83 84 89 87 85 82 82 86 93 96 90 72 57 49 40 36
82 78 73 71 72 72 70 70 71 71 71 72 75 79 82 81 79 80 81 85 87 87 87 87 86 86 87 88 90 91 89 85 82 82 87 94 93 82 59 49 44 37 34 32
88 83 80 79 78 78 79 80 81 82 82 84 85 84 82 82 84 87 89 88 88 88 88 89 89 91 91 92 92 88 85 82 84 89 94 91 70 51 47 42 36 33 33 34

GFSNGP_prec_cthk_171.txt.gz
RH
53 54 54 51 48 51 53 54 59 40 41 32 26 20 20 21 19 22 29 38 46 45 40 42 52 60 73 67 74 82 77 75 78 66 67 53 34 24 24 26 26 27 28 29
67 60 59 58 55 56 51 48 48 43 34 22 25 29 30 31 33 33 30 29 31 36 47 49 51 54 65 77 87 79 82 84 77 70 57 37 25 24 27 28 29 30 28 30
68 69 69 63 58 54 49 47 46 44 28 31 37 41 43 43 42 43 44 44 49 50 50 57 69 77 81 85 82 81 82 89 71 59 41 28 24 28 30 33 32 30 30 30
84 81 83 53 49 50 46 45 47 47 45 44 45 46 48 47 45 45 50 51 56 66 74 73 79 82 84 84 80 85 94 76 58 47 32 26 28 30 34 35 33 32 31 30
87 74 57 54 52 52 50 51 67 61 57 56 54 57 57 61 59 65 71 75 72 69 64 67 74 76 78 78 81 80 81 54 46 36 29 31 33 35 37 35 34 34 30 30
92 87 74 60 59 62 63 59 70 73 72 69 63 62 64 63 61 61 67 67 71 71 74 76 78 69 64 68 64 64 47 42 38 31 32 36 39 39 40 38 36 32 30 30
77 79 68 52 55 64 71 62 72 79 80 78 78 76 68 68 71 69 68 71 71 73 71 67 55 49 51 52 51 43 39 38 34 33 35 41 41 39 39 38 37 35 34 33
76 79 68 53 68 73 69 68 70 81 85 82 82 82 78 75 73 74 74 73 71 69 65 51 44 47 45 43 39 38 39 36 33 35 41 42 39 40 40 38 37 38 39 37
63 58 57 63 72 81 86 84 85 84 88 89 86 83 81 79 80 81 81 80 77 74 66 43 43 41 41 37 39 41 37 34 35 41 45 43 42 42 39 37 37 40 41 42
75 58 68 75 73 73 86 95 94 90 91 91 90 84 87 85 85 84 84 83 81 76 73 46 37 37 38 40 41 39 35 36 41 43 41 42 42 40 36 35 36 38 41 43
92 89 82 72 66 69 81 91 91 91 90 91 85 85 88 85 81 77 77 82 83 81 75 53 39 41 43 41 39 38 39 41 42 41 39 38 37 35 36 37 38 39 42 45
80 72 73 58 56 54 75 90 86 93 96 93 86 86 77 67 67 70 70 64 58 57 58 55 47 44 43 41 41 42 42 42 41 38 38 37 36 37 40 41 40 46 52 50
50 40 40 39 46 51 61 86 88 89 97 96 86 77 69 65 68 68 67 65 60 50 51 55 51 44 44 44 44 43 43 41 38 41 39 38 39 41 43 44 54 60 57 57
38 34 32 32 42 49 61 77 80 81 91 92 85 81 73 67 67 68 71 68 62 58 51 55 48 47 46 45 44 43 42 44 45 44 42 43 46 51 57 61 62 63 65 66
50 46 41 40 46 46 57 65 74 76 84 87 87 86 81 74 70 75 76 68 63 62 51 49 49 47 46 46 46 47 50 51 50 46 47 55 61 62 61 63 67 72 72 72
48 48 51 55 61 62 64 70 74 73 79 86 89 91 83 77 81 80 71 67 63 60 54 45 46 48 49 48 51 56 55 53 54 56 61 61 60 66 72 74 75 75 74 75
54 60 68 64 56 58 67 71 83 85 84 85 90 87 84 88 83 76 68 63 62 57 51 47 49 51 52 54 56 56 59 62 63 62 64 74 77 76 77 77 76 76 77 76
70 69 66 64 66 70 77 84 90 93 91 90 90 93 90 82 80 73 68 65 59 57 50 49 51 53 54 55 56 60 64 63 64 73 77 75 75 74 73 75 77 77 76 77
77 77 75 76 79 84 88 91 96 97 98 98 95 93 90 85 78 76 69 67 60 56 51 53 54 54 57 58 59 66 68 70 75 75 74 74 73 74 77 77 76 77 79 80
70 68 68 70 72 79 90 93 93 93 90 88 88 87 85 82 80 74 70 64 61 55 54 56 62 64 66 67 68 71 72 73 75 75 75 75 77 78 77 76 79 81 81 87
72 69 73 75 78 83 87 91 88 82 81 82 84 83 81 79 73 68 64 61 56 56 64 67 71 72 71 71 72 73 75 76 76 75 76 77 79 78 78 82 83 82 87 94
67 69 72 77 79 84 76 76 69 68 74 77 76 76 75 71 66 62 57 57 65 74 76 75 75 75 74 73 75 78 78 77 77 78 79 81 80 82 84 83 82 87 93 97
69 69 69 73 76 76 68 65 63 61 60 64 66 67 68 66 62 59 63 73 76 77 78 78 76 75 77 80 81 80 78 79 81 82 83 85 85 84 82 82 86 93 96 89
70 68 65 65 64 63 59 59 60 60 61 64 64 62 61 60 62 67 71 76 79 79 79 79 80 83 83 83 81 80 80 81 83 85 88 88 84 82 81 86 93 91 75 60
75 76 73 68 71 66 64 68 67 63 62 61 60 60 61 65 74 78 81 81 80 82 83 86 86 86 85 84 84 85 86 88 90 90 87 84 82 81 86 89 81 62 54 46
82 82 80 78 74 73 73 70 68 68 69 70 72 74 76 78 82 82 81 81 84 88 89 89 89 89 89 89 90 91 91 92 91 87 85 83 83 87 86 70 52 48 44 39
89 89 86 81 80 77 75 76 77 78 78 79 80 83 85 84 83 85 87 90 91 91 91 91 92 92 91 92 93 93 93 92 88 87 85 84 85 81 58 50 47 43 39 37

GFSNGP_prec_cthk_174.txt.gz
RH
56 53 54 52 50 53 54 50 59 45 51 34 39 41 40 33 30 26 23 23 37 39 52 58 61 58 58 56 58 61 74 66 75 80 68 63 60 50 35 24 25 26 26 29
73 62 63 64 57 59 53 47 51 51 38 42 40 36 34 34 34 33 32 31 31 37 36 40 44 48 55 64 60 60 68 89 85 76 69 69 56 39 27 26 28 29 32 29
74 69 73 67 59 56 51 50 54 50 41 39 42 39 39 43 42 41 41 42 45 44 40 41 49 58 58 64 68 74 86 93 81 79 73 66 44 31 26 31 34 37 39 38
87 80 89 52 54 50 47 50 49 42 41 48 48 47 45 46 47 48 48 47 47 50 55 61 65 70 75 81 88 94 95 86 90 78 74 53 36 29 30 36 38 41 41 41
92 73 64 58 55 57 57 54 55 52 62 68 65 58 54 54 57 62 60 67 71 67 67 73 77 77 79 85 85 81 81 89 81 77 60 41 32 31 37 40 42 42 42 42
96 94 78 56 54 57 62 65 67 68 78 76 74 71 76 65 66 67 63 62 69 68 70 71 72 77 80 83 81 77 86 86 72 58 46 33 32 37 40 43 41 39 39 34
86 82 60 58 58 61 62 64 72 74 80 78 83 86 78 71 73 73 73 70 68 70 72 74 77 79 78 65 57 67 72 58 50 43 37 32 32 40 44 42 41 38 36 37
77 81 69 54 56 63 70 76 75 72 77 77 87 85 85 81 72 75 74 75 75 75 74 75 73 64 55 51 58 57 56 47 45 41 36 34 36 43 46 42 41 38 36 37
76 66 68 58 60 69 72 71 84 89 84 85 85 89 86 83 83 80 80 83 82 81 80 78 76 56 48 50 49 53 47 46 44 40 39 41 43 48 46 44 43 39 36 39
71 66 62 62 66 72 80 80 88 87 95 92 88 91 89 87 88 88 86 84 82 83 85 82 80 61 47 47 49 47 45 44 42 41 41 46 46 44 46 47 43 40 40 41
72 71 79 84 83 77 75 72 81 86 96 96 93 94 91 87 89 87 80 74 72 72 83 87 79 64 45 46 44 45 43 42 41 41 43 45 43 45 44 44 43 44 46 42
67 70 80 73 71 68 63 63 72 80 89 94 94 93 91 87 84 71 67 70 71 70 62 56 59 55 51 46 46 44 42 42 44 45 45 43 44 46 44 43 41 43 44 48
55 58 61 52 51 47 47 50 56 66 85 92 98 94 88 77 68 66 68 69 69 68 63 60 53 56 55 49 47 45 44 44 47 46 44 44 47 47 47 45 47 48 55 62
48 49 48 40 36 37 44 51 52 62 78 83 96 92 86 78 69 66 67 69 71 71 68 64 61 57 56 47 48 47 47 47 47 45 47 49 48 49 51 56 57 63 65 65
49 49 46 46 43 43 48 46 48 64 73 78 89 90 89 84 77 73 73 76 75 71 68 67 65 54 49 48 46 46 46 44 45 46 48 47 48 51 61 67 70 72 74 75
50 46 46 46 47 45 50 56 55 62 71 72 79 83 88 88 84 79 79 78 71 69 66 66 61 56 48 49 50 49 49 51 55 52 51 54 61 67 67 70 79 81 80 79
54 46 46 51 58 62 56 57 59 61 71 77 81 81 84 84 83 85 84 76 69 65 63 62 58 55 51 51 50 52 56 55 56 61 64 65 67 72 79 80 80 81 80 82
62 63 67 69 69 68 68 63 66 72 80 91 92 90 86 82 86 87 79 73 71 66 61 58 60 54 53 53 54 54 55 60 66 68 67 73 80 80 81 82 82 82 84 84
78 77 74 74 77 75 75 78 83 87 91 95 98 97 95 91 90 89 81 73 71 67 64 62 63 56 56 57 56 58 64 71 72 74 77 79 79 81 81 81 84 85 84 80
82 70 68 68 64 69 76 79 87 93 98 98 98 97 96 93 89 88 82 77 70 69 65 66 61 59 63 66 66 68 73 77 77 77 79 80 81 80 81 83 83 82 83 86
79 74 72 80 78 81 82 80 82 84 81 80 83 89 90 90 90 88 84 79 74 68 67 64 63 69 72 76 74 75 77 78 80 81 80 80 79 81 82 84 86 88 88 86
70 72 73 79 81 83 88 82 73 74 68 64 71 80 84 88 87 86 80 75 70 66 65 70 78 79 77 78 78 78 81 84 84 82 83 82 84 85 87 90 90 88 86 84
67 68 71 75 76 80 84 83 72 70 66 61 60 67 74 76 77 76 73 70 67 70 78 80 81 81 80 80 82 85 86 85 84 85 86 88 89 91 92 90 88 86 85 88
70 70 70 66 64 65 66 66 64 61 61 63 64 69 71 72 71 69 68 71 76 79 82 84 83 83 85 87 87 87 87 86 87 89 91 91 92 93 89 87 86 85 88 88
75 74 74 73 70 67 68 66 65 70 68 67 67 66 66 67 69 70 73 80 84 85 85 86 87 89 89 89 88 88 89 90 92 93 93 94 93 90 88 87 85 83 79 61
77 81 79 78 77 74 73 76 73 71 71 71 72 72 73 76 79 83 86 88 86 86 87 89 91 91 91 91 92 93 93 93 94 95 95 93 90 89 87 82 78 65 53 50
78 83 84 84 81 78 77 75 75 76 78 79 79 80 81 83 86 88 87 86 87 90 92 92 92 93 94 95 94 94 94 95 95 95 95 93 90 85 79 72 56 52 49 46